SBBE Airport Information

Runway Information
Runway 6 Length 9186 ft width 148 ft
Elevation 0 ft Threshold 0 ft Heading 0
Runway 24 Length 9186 ft Width 148 ft
Elevation 0 ft Threshold 0 ft Heading 0
Runway 7 Length 108 ft width 108 ft
Elevation 0 ft Threshold 0 ft Heading 0
Runway 20 Length 108 ft Width 108 ft
Elevation 0 ft Threshold 0 ft Heading 0
Airport Frequencies
Type APP Name BELEM APP Frequency 119.05 MHZ
Type ATIS Name BELEM ATIS Frequency 127.6 MHZ
Type GND Name GND Frequency 121.9 MHZ
Type OPS Name BELEM OPS Frequency 122.5 MHZ
Type TWR Name BELEM TWR Frequency 118.7 MHZ
Airport Navaids
Type VOR-DME Name Belem Frequency 117300 KHZ
Type NDB Name Belem Frequency 250 KHZ
Type NDB Name Valde Frequency 395 KHZ
Airport Weather Information & NOTAM
ADDS - METARS form results

(2224 UTC 20 June 2018)
 
METAR text: SBBE 202200Z 05005KT 9999 4500S SCT030 FEW031TCU 28/23 Q1013
Conditions at: SBBE (BELEM/VAL DE CAE, BR) observed 2200 UTC 20 June 2018
Temperature: 28.0°C (82°F)
Dewpoint: 23.0°C (73°F) [RH = 74%]
Pressure (altimeter): 29.91 inches Hg (1013.0 mb)
Winds: from the NE (50 degrees) at 6 MPH (5 knots; 2.6 m/s)
Visibility: 6 or more miles (10+ km)
Ceiling: at least 12,000 feet AGL
Clouds: scattered clouds at 3000 feet AGL
few clouds at 3100 feet AGL
Weather: no significant weather observed at this time